User: anonymous   Login
Location: Capannuccia
(43.7000°N, 11.3000°E)
Time: 16:05:00
(UTC+00:00)
Language:

STARLINK-1312 - Orbit

View from above orbital plane
View from above orbital plane
View from above satellite
View from above satellite

Ground track
Ground track

The orbit data is extracted from the following two-line orbital elements,

1 45398C 20019AQ  20225.47112252  .00002402  00000-0  16453-3 0  2258
2 45398  52.9985 283.0662 0000762 116.4672   7.0122 15.05579103    17
Epoch (UTC): 12 August 2020 11:18:24
Eccentricity: 0.0000762
inclination: 52.9985°
perigee height: 549 km
apogee height: 550 km
right ascension of ascending node: 283.0662°
argument of perigee: 116.4672°
revolutions per day: 15.05579103
mean anomaly at epoch: 7.0122°
orbit number at epoch: 1

The dashed part of the orbit path shows where the satellite is in the earth's shadow,  

DLR